Location: Unspecified
(49.8670°N, 0.0000°E)
Time: 22:09:22
(UTC+00:00)

S-56A Canister/Altair - Pass Details

Date: 23 June 2019
Orbit: 633 x 2499 km, 38.9° (Epoch: 22 October)

Event Time Altitude Azimuth Distance (km) Brightness Sun altitude
Rises 17:06:04 0° 247° (WSW) 4,850 12.6 26.6°
Reaches altitude 10° 17:10:04 10° 239° (WSW) 3,535 11.9 25.9°
Maximum altitude 17:17:22 33° 180° (S) 1,730 9.5 24.8°
Drops below altitude 10° 17:22:36 10° 118° (ESE) 2,499 9.7 23.9°
Sets 17:24:57 0° 108° (ESE) 3,268 10.2 23.6°
